When you browse on this site, cookies collect data to enhance your experience and personalize the content and advertising you see.
Visit our Privacy Policy to learn more. By continuing to use the site, you agree to this use of cookies and data.
  • In Hungary
  • List of Countries
  • For 7 days
  • Water Temperature
  • Weather Map
  • News
  • Weather Widgets
  • user-avatar
    Login

    Hourly Weather Balasore

    Today, 25 August, Sunday

    Time Temperature Precipitation Wind Pressure Humidity
    00:00 +29°C° 0 mm 1 mps 750 mmHg 86%
    01:00 +29°C° 1.1 mm 1 mps 750 mmHg 88%
    02:00 +28°C° 1.1 mm 1 mps 749 mmHg 90%
    03:00 +28°C° 1.1 mm 2 mps 749 mmHg 92%
    04:00 +28°C° 1 mm 2 mps 749 mmHg 92%
    05:00 +28°C° 1 mm 2 mps 749 mmHg 92%
    06:00 +28°C° 0 mm 2 mps 749 mmHg 94%
    07:00 +28°C° 0.8 mm 2 mps 749 mmHg 92%
    08:00 +29°C° 0.8 mm 2 mps 749 mmHg 89%
    09:00 +29°C° 0.8 mm 3 mps 749 mmHg 86%
    10:00 +30°C° 1.3 mm 3 mps 749 mmHg 83%
    11:00 +31°C° 1.3 mm 3 mps 749 mmHg 79%
    12:00 +33°C° 0 mm 5 mps 750 mmHg 76%
    13:00 +32°C° 2.3 mm 5 mps 750 mmHg 80%
    14:00 +30°C° 2.3 mm 5 mps 749 mmHg 83%
    15:00 +29°C° 2.3 mm 6 mps 749 mmHg 87%
    16:00 +29°C° 2.4 mm 4 mps 749 mmHg 89%
    17:00 +28°C° 2.4 mm 3 mps 749 mmHg 91%
    18:00 +28°C° 0 mm 1 mps 749 mmHg 94%
    19:00 +28°C° 0.5 mm 1 mps 749 mmHg 94%
    20:00 +28°C° 0.5 mm 1 mps 749 mmHg 94%
    21:00 +28°C° 0.5 mm 1 mps 750 mmHg 94%
    22:00 +28°C° 1.6 mm 1 mps 750 mmHg 94%
    23:00 +28°C° 1.6 mm 1 mps 750 mmHg 93%

    Tomorrow, 26 August, Monday

    Time Temperature Precipitation Wind Pressure Humidity
    00:00 +26°C° 1.6 mm 0 mps 750 mmHg 93%
    01:00 +26°C° 6.4 mm 0 mps 749 mmHg 94%
    02:00 +27°C° 6.4 mm 1 mps 749 mmHg 96%
    03:00 +27°C° 6.4 mm 1 mps 748 mmHg 97%
    04:00 +27°C° 0.6 mm 1 mps 748 mmHg 96%
    05:00 +27°C° 0.6 mm 1 mps 749 mmHg 95%
    06:00 +28°C° 0.6 mm 1 mps 749 mmHg 94%
    07:00 +28°C° 0.8 mm 1 mps 749 mmHg 92%
    08:00 +28°C° 0.8 mm 2 mps 749 mmHg 90%
    09:00 +28°C° 0.8 mm 2 mps 750 mmHg 89%
    10:00 +29°C° 0.6 mm 2 mps 750 mmHg 86%
    11:00 +30°C° 0.6 mm 3 mps 749 mmHg 83%
    12:00 +31°C° 0.6 mm 3 mps 749 mmHg 80%
    13:00 +32°C° 0.1 mm 4 mps 749 mmHg 77%
    14:00 +33°C° 0.1 mm 4 mps 748 mmHg 74%
    15:00 +33°C° 0.1 mm 4 mps 747 mmHg 72%
    16:00 +33°C° 0 mm 4 mps 747 mmHg 74%
    17:00 +33°C° 0 mm 4 mps 747 mmHg 76%
    18:00 +31°C° 0 mm 3 mps 747 mmHg 79%
    19:00 +31°C° 0.1 mm 3 mps 748 mmHg 80%
    20:00 +30°C° 0.1 mm 3 mps 749 mmHg 82%
    21:00 +30°C° 0.1 mm 3 mps 749 mmHg 84%
    22:00 +30°C° 0.2 mm 3 mps 749 mmHg 84%
    23:00 +29°C° 0.2 mm 3 mps 749 mmHg 85%

    Day after tomorrow, 27 August, Tuesday

    Time Temperature Precipitation Wind Pressure Humidity
    00:00 +29°C° 0.2 mm 4 mps 750 mmHg 85%
    01:00 +29°C° 0.3 mm 3 mps 749 mmHg 86%
    02:00 +29°C° 0.3 mm 3 mps 749 mmHg 87%
    03:00 +28°C° 0.3 mm 2 mps 748 mmHg 88%
    04:00 +28°C° 0.8 mm 2 mps 749 mmHg 88%
    05:00 +28°C° 0.8 mm 2 mps 749 mmHg 88%
    06:00 +28°C° 0.8 mm 2 mps 749 mmHg 88%
    07:00 +29°C° 1.9 mm 2 mps 749 mmHg 83%
    08:00 +31°C° 1.9 mm 2 mps 749 mmHg 78%
    09:00 +32°C° 1.9 mm 2 mps 750 mmHg 74%
    10:00 +32°C° 3.5 mm 2 mps 749 mmHg 71%
    11:00 +34°C° 3.5 mm 2 mps 749 mmHg 69%
    12:00 +34°C° 3.5 mm 1 mps 749 mmHg 67%
    13:00 +35°C° 2.2 mm 2 mps 748 mmHg 66%
    14:00 +35°C° 2.2 mm 2 mps 748 mmHg 65%
    15:00 +35°C° 2.2 mm 2 mps 747 mmHg 64%
    16:00 +35°C° 2 mm 2 mps 747 mmHg 68%
    17:00 +34°C° 2 mm 3 mps 747 mmHg 72%
    18:00 +33°C° 2 mm 3 mps 747 mmHg 76%
    19:00 +33°C° 0.4 mm 3 mps 748 mmHg 79%
    20:00 +31°C° 0.4 mm 3 mps 749 mmHg 81%
    21:00 +30°C° 0.4 mm 3 mps 749 mmHg 83%
    22:00 +30°C° 0.1 mm 3 mps 749 mmHg 84%
    23:00 +30°C° 0.1 mm 3 mps 750 mmHg 85%

    28 August, Wednesday

    Time Temperature Precipitation Wind Pressure Humidity
    00:00 +29°C° 0.1 mm 3 mps 750 mmHg 86%
    01:00 +29°C° 0 mm 3 mps 749 mmHg 86%
    02:00 +29°C° 0 mm 2 mps 749 mmHg 86%
    03:00 +29°C° 0 mm 2 mps 749 mmHg 87%
    04:00 +29°C° 1.2 mm 2 mps 749 mmHg 86%
    05:00 +29°C° 1.2 mm 2 mps 749 mmHg 86%
    06:00 +29°C° 1.2 mm 2 mps 749 mmHg 85%
    07:00 +30°C° 1.3 mm 2 mps 750 mmHg 81%
    08:00 +31°C° 1.3 mm 2 mps 750 mmHg 77%
    09:00 +32°C° 1.3 mm 2 mps 751 mmHg 72%
    10:00 +34°C° 1.6 mm 2 mps 750 mmHg 70%
    11:00 +33°C° 1.6 mm 1 mps 750 mmHg 69%
    12:00 +34°C° 1.6 mm 1 mps 750 mmHg 67%
    13:00 +34°C° 1.9 mm 1 mps 750 mmHg 67%
    14:00 +34°C° 1.9 mm 1 mps 749 mmHg 67%
    15:00 +35°C° 1.9 mm 2 mps 748 mmHg 67%
    16:00 +34°C° 0.8 mm 2 mps 748 mmHg 70%
    17:00 +34°C° 0.8 mm 2 mps 748 mmHg 73%
    18:00 +32°C° 0.8 mm 2 mps 748 mmHg 76%
    19:00 +32°C° 0.4 mm 2 mps 749 mmHg 78%
    20:00 +31°C° 0.4 mm 2 mps 749 mmHg 80%
    21:00 +31°C° 0.4 mm 2 mps 750 mmHg 82%
    22:00 +30°C° 0.1 mm 2 mps 750 mmHg 83%
    23:00 +30°C° 0.1 mm 1 mps 750 mmHg 83%

    29 August, Thursday

    Time Temperature Precipitation Wind Pressure Humidity
    00:00 +30°C° 0.1 mm 1 mps 750 mmHg 83%
    01:00 +30°C° 0.6 mm 1 mps 749 mmHg 84%
    02:00 +30°C° 0.6 mm 2 mps 749 mmHg 85%
    03:00 +29°C° 0.6 mm 2 mps 749 mmHg 86%
    04:00 +29°C° 0.3 mm 2 mps 749 mmHg 87%
    05:00 +29°C° 0.3 mm 2 mps 749 mmHg 88%
    06:00 +29°C° 0.3 mm 3 mps 749 mmHg 89%
    07:00 +29°C° 0.6 mm 3 mps 749 mmHg 85%
    08:00 +30°C° 0.6 mm 3 mps 750 mmHg 82%
    09:00 +31°C° 0.6 mm 3 mps 750 mmHg 79%
    10:00 +33°C° 0.7 mm 3 mps 750 mmHg 73%
    11:00 +34°C° 0.7 mm 3 mps 750 mmHg 68%
    12:00 +35°C° 0.7 mm 3 mps 750 mmHg 63%
    13:00 +35°C° 0.6 mm 3 mps 749 mmHg 64%
    14:00 +35°C° 0.6 mm 3 mps 748 mmHg 65%
    15:00 +35°C° 0.6 mm 3 mps 748 mmHg 67%
    16:00 +34°C° 0.2 mm 3 mps 747 mmHg 70%
    17:00 +32°C° 0.2 mm 2 mps 747 mmHg 74%
    18:00 +31°C° 0.2 mm 2 mps 747 mmHg 78%
    19:00 +31°C° 0 mm 2 mps 748 mmHg 80%
    20:00 +30°C° 0 mm 2 mps 748 mmHg 81%
    21:00 +30°C° 0 mm 2 mps 749 mmHg 83%
    22:00 +30°C° 0 mm 1 mps 749 mmHg 84%
    23:00 +30°C° 0 mm 1 mps 749 mmHg 85%

    30 August, Friday

    Time Temperature Precipitation Wind Pressure Humidity
    00:00 +29°C° 0 mm 1 mps 749 mmHg 85%
    01:00 +29°C° 0.2 mm 1 mps 748 mmHg 86%
    02:00 +29°C° 0.2 mm 1 mps 748 mmHg 87%
    03:00 +29°C° 0.2 mm 1 mps 748 mmHg 87%
    04:00 +29°C° 0.4 mm 1 mps 748 mmHg 88%
    05:00 +28°C° 0.4 mm 2 mps 748 mmHg 88%
    06:00 +28°C° 0.4 mm 2 mps 748 mmHg 89%
    07:00 +30°C° 0.1 mm 2 mps 748 mmHg 84%
    08:00 +31°C° 0.1 mm 3 mps 749 mmHg 79%
    09:00 +33°C° 0.1 mm 3 mps 749 mmHg 74%
    10:00 +34°C° 0.4 mm 4 mps 749 mmHg 72%
    11:00 +34°C° 0.4 mm 5 mps 748 mmHg 71%
    12:00 +35°C° 0.4 mm 5 mps 748 mmHg 69%
    13:00 +35°C° 0.4 mm 5 mps 748 mmHg 69%
    14:00 +35°C° 0.4 mm 5 mps 747 mmHg 69%
    15:00 +35°C° 0.4 mm 5 mps 746 mmHg 69%
    16:00 +34°C° 0 mm 4 mps 746 mmHg 72%
    17:00 +33°C° 0 mm 4 mps 746 mmHg 75%
    18:00 +31°C° 0 mm 3 mps 746 mmHg 77%
    19:00 +31°C° 0 mm 3 mps 747 mmHg 79%
    20:00 +31°C° 0 mm 2 mps 748 mmHg 81%
    21:00 +30°C° 0 mm 2 mps 748 mmHg 83%
    22:00 +30°C° 0 mm 2 mps 748 mmHg 83%
    23:00 +30°C° 0 mm 2 mps 748 mmHg 84%
    Show more